Time,TemperatureF,DewpointF,PressureIn,WindDirection,WindDirectionDegrees,WindSpeedMPH,WindSpeedGustMPH,Humidity,HourlyPrecipIn,Conditions,Clouds,dailyrainin,SoftwareType,DateUTC
2013-04-09 00:13:00,42.6,43.0,29.92,North,10,1.0,-999.0,100,-99.99,,,0.00,weatherlink.com 1.10,2013-04-08 21:13:00,
2013-04-09 00:28:00,42.6,43.0,29.92,NE,44,8.0,-999.0,100,-99.99,,,0.00,weatherlink.com 1.10,2013-04-08 21:28:00,
2013-04-09 00:43:00,42.6,43.0,29.93,NNE,30,5.0,-999.0,100,-99.99,,,0.00,weatherlink.com 1.10,2013-04-08 21:43:00,
2013-04-09 00:58:00,42.5,43.0,29.93,NNE,13,6.0,-999.0,100,-99.99,,,0.00,weatherlink.com 1.10,2013-04-08 21:58:00,
2013-04-09 01:13:00,42.5,43.0,29.93,NNE,14,7.0,-999.0,100,-99.99,,,0.00,weatherlink.com 1.10,2013-04-08 22:13:00,
2013-04-09 01:44:00,42.2,42.0,29.93,North,6,7.0,-999.0,100,-99.99,,,0.00,weatherlink.com 1.10,2013-04-08 22:44:00,
2013-04-09 01:58:00,42.1,42.0,29.92,East,89,0.0,-999.0,100,-99.99,,,0.00,weatherlink.com 1.10,2013-04-08 22:58:00,
2013-04-09 02:29:00,42.2,42.0,29.92,NE,45,4.0,-999.0,100,-99.99,,,0.00,weatherlink.com 1.10,2013-04-08 23:29:00,
2013-04-09 02:44:00,41.9,42.0,29.91,North,357,7.0,-999.0,100,-99.99,,,0.00,weatherlink.com 1.10,2013-04-08 23:44:00,
2013-04-09 03:29:00,42.1,42.0,29.92,NNE,17,1.0,-999.0,100,-99.99,,,0.00,weatherlink.com 1.10,2013-04-09 00:29:00,
2013-04-09 04:14:00,42.2,42.0,29.93,North,8,7.0,-999.0,100,-99.99,,,0.00,weatherlink.com 1.10,2013-04-09 01:14:00,
2013-04-09 04:44:00,42.2,42.0,29.93,NE,34,2.0,-999.0,100,-99.99,,,0.00,weatherlink.com 1.10,2013-04-09 01:44:00,
2013-04-09 05:14:00,42.3,42.0,29.92,NE,34,6.0,-999.0,100,-99.99,,,0.00,weatherlink.com 1.10,2013-04-09 02:14:00,
2013-04-09 05:29:00,42.3,42.0,29.91,NNE,25,5.0,-999.0,100,-99.99,,,0.00,weatherlink.com 1.10,2013-04-09 02:29:00,
2013-04-09 05:44:00,42.5,43.0,29.92,NE,37,5.0,-999.0,100,-99.99,,,0.00,weatherlink.com 1.10,2013-04-09 02:44:00,
2013-04-09 05:59:00,42.5,43.0,29.92,NNE,32,2.0,-999.0,100,-99.99,,,0.00,weatherlink.com 1.10,2013-04-09 02:59:00,
2013-04-09 06:14:00,42.6,43.0,29.92,East,80,6.0,-999.0,100,-99.99,,,0.00,weatherlink.com 1.10,2013-04-09 03:14:00,
2013-04-09 06:29:00,42.6,43.0,29.92,NE,48,7.0,-999.0,100,-99.99,,,0.00,weatherlink.com 1.10,2013-04-09 03:29:00,
2013-04-09 06:44:00,42.8,43.0,29.93,NE,35,3.0,-999.0,100,-99.99,,,0.00,weatherlink.com 1.10,2013-04-09 03:44:00,
2013-04-09 07:14:00,42.9,43.0,29.94,NE,35,5.0,-999.0,100,-99.99,,,0.00,weatherlink.com 1.10,2013-04-09 04:14:00,
2013-04-09 07:29:00,42.9,43.0,29.94,NNE,32,6.0,-999.0,100,-99.99,,,0.00,weatherlink.com 1.10,2013-04-09 04:29:00,
2013-04-09 07:44:00,43.1,43.0,29.94,NE,40,5.0,-999.0,100,-99.99,,,0.00,weatherlink.com 1.10,2013-04-09 04:44:00,
2013-04-09 08:29:00,43.3,43.0,29.95,NE,40,5.0,-999.0,100,-99.99,,,0.00,weatherlink.com 1.10,2013-04-09 05:29:00,
2013-04-09 08:44:00,43.3,43.0,29.95,NE,38,5.0,-999.0,100,-99.99,,,0.00,weatherlink.com 1.10,2013-04-09 05:44:00,
2013-04-09 08:59:00,43.5,44.0,29.96,NE,52,6.0,-999.0,100,-99.99,,,0.00,weatherlink.com 1.10,2013-04-09 05:59:00,
2013-04-09 09:29:00,43.6,44.0,29.96,NE,48,10.0,-999.0,100,-99.99,,,0.00,weatherlink.com 1.10,2013-04-09 06:29:00,
2013-04-09 09:44:00,43.5,44.0,29.96,NE,37,8.0,-999.0,100,-99.99,,,0.01,weatherlink.com 1.10,2013-04-09 06:44:00,
2013-04-09 09:59:00,43.5,44.0,29.97,NE,41,1.0,-999.0,100,-99.99,,,0.02,weatherlink.com 1.10,2013-04-09 06:59:00,
2013-04-09 10:14:00,43.3,43.0,29.97,NE,44,10.0,-999.0,100,-99.99,,,0.02,weatherlink.com 1.10,2013-04-09 07:14:00,
2013-04-09 10:29:00,43.8,44.0,29.97,NE,42,5.0,-999.0,100,-99.99,,,0.02,weatherlink.com 1.10,2013-04-09 07:29:00,
2013-04-09 10:44:00,43.9,44.0,29.97,ENE,75,6.0,-999.0,100,-99.99,,,0.02,weatherlink.com 1.10,2013-04-09 07:44:00,
2013-04-09 10:59:00,44.2,44.0,29.97,ENE,61,6.0,-999.0,100,-99.99,,,0.02,weatherlink.com 1.10,2013-04-09 07:59:00,
2013-04-09 11:29:00,45.2,45.0,29.97,NNE,20,5.0,-999.0,100,-99.99,,,0.02,weatherlink.com 1.10,2013-04-09 08:29:00,
2013-04-09 11:44:00,45.4,45.0,29.96,NNE,23,8.0,-999.0,100,-99.99,,,0.02,weatherlink.com 1.10,2013-04-09 08:44:00,
2013-04-09 12:00:00,46.2,46.0,29.96,East,83,4.0,-999.0,100,-99.99,,,0.02,weatherlink.com 1.10,2013-04-09 09:00:00,
2013-04-09 12:15:00,46.1,45.0,29.96,NNE,27,4.0,-999.0,97,-99.99,,,0.02,weatherlink.com 1.10,2013-04-09 09:15:00,
2013-04-09 12:30:00,46.2,45.0,29.97,NNE,30,0.0,-999.0,97,-99.99,,,0.02,weatherlink.com 1.10,2013-04-09 09:30:00,
2013-04-09 12:45:00,46.2,45.0,29.97,NE,34,0.0,-999.0,96,-99.99,,,0.02,weatherlink.com 1.10,2013-04-09 09:45:00,
2013-04-09 13:00:00,46.2,45.0,29.97,NNE,20,7.0,-999.0,95,-99.99,,,0.02,weatherlink.com 1.10,2013-04-09 10:00:00,
2013-04-09 13:15:00,46.5,45.0,29.97,NE,37,5.0,-999.0,95,-99.99,,,0.02,weatherlink.com 1.10,2013-04-09 10:15:00,
2013-04-09 13:30:00,46.8,45.0,29.96,NE,52,3.0,-999.0,94,-99.99,,,0.02,weatherlink.com 1.10,2013-04-09 10:30:00,
2013-04-09 13:45:00,46.8,45.0,29.96,NE,51,6.0,-999.0,93,-99.99,,,0.02,weatherlink.com 1.10,2013-04-09 10:45:00,
2013-04-09 14:00:00,47.1,45.0,29.96,North,353,4.0,-999.0,92,-99.99,,,0.02,weatherlink.com 1.10,2013-04-09 11:00:00,
2013-04-09 14:15:00,47.1,45.0,29.96,NE,37,4.0,-999.0,91,-99.99,,,0.02,weatherlink.com 1.10,2013-04-09 11:15:00,
2013-04-09 14:30:00,47.3,45.0,29.96,NNE,20,6.0,-999.0,91,-99.99,,,0.02,weatherlink.com 1.10,2013-04-09 11:30:00,
2013-04-09 14:45:00,47.1,45.0,29.96,NE,34,5.0,-999.0,91,-99.99,,,0.02,weatherlink.com 1.10,2013-04-09 11:45:00,
2013-04-09 15:16:00,46.4,44.0,29.96,NNE,20,5.0,-999.0,90,-99.99,,,0.02,weatherlink.com 1.10,2013-04-09 12:16:00,
2013-04-09 15:46:00,46.1,43.0,29.96,North,0,8.0,-999.0,90,-99.99,,,0.02,weatherlink.com 1.10,2013-04-09 12:46:00,
2013-04-09 16:01:00,45.8,43.0,29.96,NE,34,5.0,-999.0,90,-99.99,,,0.02,weatherlink.com 1.10,2013-04-09 13:01:00,
2013-04-09 16:16:00,45.5,43.0,29.96,NE,45,6.0,-999.0,90,-99.99,,,0.02,weatherlink.com 1.10,2013-04-09 13:16:00,
2013-04-09 16:31:00,45.2,43.0,29.96,NE,45,5.0,-999.0,90,-99.99,,,0.02,weatherlink.com 1.10,2013-04-09 13:31:00,
2013-04-09 16:46:00,45.1,43.0,29.96,NNE,24,6.0,-999.0,91,-99.99,,,0.02,weatherlink.com 1.10,2013-04-09 13:46:00,
2013-04-09 17:02:00,45.1,43.0,29.96,NE,51,5.0,-999.0,91,-99.99,,,0.02,weatherlink.com 1.10,2013-04-09 14:02:00,
2013-04-09 17:32:00,44.8,42.0,29.96,NE,52,2.0,-999.0,91,-99.99,,,0.02,weatherlink.com 1.10,2013-04-09 14:32:00,
2013-04-09 17:48:00,44.6,42.0,29.97,NNE,17,5.0,-999.0,91,-99.99,,,0.02,weatherlink.com 1.10,2013-04-09 14:48:00,
2013-04-09 18:02:00,44.6,43.0,29.97,NNE,32,1.0,-999.0,92,-99.99,,,0.02,weatherlink.com 1.10,2013-04-09 15:02:00,
2013-04-09 18:17:00,44.6,43.0,29.97,NE,42,0.0,-999.0,93,-99.99,,,0.02,weatherlink.com 1.10,2013-04-09 15:17:00,
2013-04-09 18:32:00,44.6,43.0,29.97,North,0,2.0,-999.0,93,-99.99,,,0.02,weatherlink.com 1.10,2013-04-09 15:32:00,
2013-04-09 18:47:00,44.6,43.0,29.97,NE,40,1.0,-999.0,94,-99.99,,,0.02,weatherlink.com 1.10,2013-04-09 15:47:00,
2013-04-09 19:02:00,44.5,43.0,29.97,NE,44,0.0,-999.0,94,-99.99,,,0.02,weatherlink.com 1.10,2013-04-09 16:02:00,
2013-04-09 19:17:00,44.6,43.0,29.98,ENE,61,0.0,-999.0,95,-99.99,,,0.02,weatherlink.com 1.10,2013-04-09 16:17:00,
2013-04-09 19:32:00,44.5,43.0,29.98,ENE,72,0.0,-999.0,95,-99.99,,,0.02,weatherlink.com 1.10,2013-04-09 16:32:00,
2013-04-09 19:47:00,44.6,43.0,29.98,NE,55,0.0,-999.0,95,-99.99,,,0.02,weatherlink.com 1.10,2013-04-09 16:47:00,
2013-04-09 20:02:00,44.6,43.0,29.98,NE,34,0.0,-999.0,95,-99.99,,,0.02,weatherlink.com 1.10,2013-04-09 17:02:00,
2013-04-09 20:17:00,44.6,43.0,29.99,East,86,2.0,-999.0,95,-99.99,,,0.02,weatherlink.com 1.10,2013-04-09 17:17:00,
2013-04-09 20:32:00,44.6,43.0,29.99,ENE,68,0.0,-999.0,95,-99.99,,,0.02,weatherlink.com 1.10,2013-04-09 17:32:00,
2013-04-09 20:47:00,44.5,43.0,30.00,NE,40,1.0,-999.0,95,-99.99,,,0.02,weatherlink.com 1.10,2013-04-09 17:47:00,
2013-04-09 21:03:00,44.5,43.0,30.00,SE,124,1.0,-999.0,95,-99.99,,,0.02,weatherlink.com 1.10,2013-04-09 18:03:00,
2013-04-09 21:18:00,44.5,44.0,30.00,ENE,78,0.0,-999.0,96,-99.99,,,0.02,weatherlink.com 1.10,2013-04-09 18:18:00,
2013-04-09 21:33:00,44.5,43.0,30.00,East,82,2.0,-999.0,95,-99.99,,,0.02,weatherlink.com 1.10,2013-04-09 18:33:00,
2013-04-09 21:48:00,44.6,44.0,30.00,ESE,112,5.0,-999.0,96,-99.99,,,0.02,weatherlink.com 1.10,2013-04-09 18:48:00,
2013-04-09 22:03:00,44.5,44.0,29.99,ESE,117,0.0,-999.0,96,-99.99,,,0.02,weatherlink.com 1.10,2013-04-09 19:03:00,
2013-04-09 22:18:00,44.5,44.0,29.99,ESE,120,0.0,-999.0,97,-99.99,,,0.02,weatherlink.com 1.10,2013-04-09 19:18:00,
2013-04-09 22:33:00,44.5,44.0,29.99,ESE,120,0.0,-999.0,98,-99.99,,,0.02,weatherlink.com 1.10,2013-04-09 19:33:00,
2013-04-09 22:48:00,44.3,44.0,29.99,ESE,114,0.0,-999.0,99,-99.99,,,0.02,weatherlink.com 1.10,2013-04-09 19:48:00,
2013-04-09 23:03:00,44.2,44.0,29.99,ESE,114,0.0,-999.0,100,-99.99,,,0.02,weatherlink.com 1.10,2013-04-09 20:03:00,
2013-04-09 23:18:00,44.3,44.0,30.00,ESE,117,0.0,-999.0,100,-99.99,,,0.02,weatherlink.com 1.10,2013-04-09 20:18:00,
2013-04-09 23:33:00,44.5,45.0,30.00,ESE,117,0.0,-999.0,100,-99.99,,,0.02,weatherlink.com 1.10,2013-04-09 20:33:00,
2013-04-09 23:49:00,44.6,45.0,30.00,SSE,148,0.0,-999.0,100,-99.99,,,0.00,weatherlink.com 1.10,2013-04-09 20:49:00,